QPF
0.00 0.00 0.00 0.00 0.00 0.00 0.00 0.00 0.00 0.01 0.00 0.00 0.00 0.00 0.00 0.00 0.00 0.00 0.00 0.00 0.00 0.00 0.00 0.00 0.00 0.00 0.00 0.00 0.00 0.00 0.00 0.00 0.00 0.01 0.00 0.01 0.01 0.02 0.01 0.00 0.00 0.00 0.00 0.00 0.00 0.00 0.00
0.00 0.00 0.00 0.00 0.00 0.00 0.00 0.00 0.00 0.00 0.00 0.00 0.00 0.00 0.00 0.00 0.00 0.00 0.00 0.00 0.00 0.00 0.00 0.00 0.00 0.00 0.00 0.00 0.00 0.00 0.00 0.00 0.00 0.00 0.00 0.00 0.01 0.01 0.03 0.01 0.01 0.01 0.01 0.00 0.00 0.00 0.00
0.00 0.00 0.00 0.00 0.00 0.00 0.00 0.00 0.00 0.00 0.00 0.00 0.00 0.00 0.00 0.00 0.00 0.00 0.00 0.00 0.00 0.00 0.00 0.00 0.00 0.00 0.00 0.00 0.00 0.00 0.00 0.00 0.00 0.00 0.00 0.00 0.00 0.02 0.03 0.04 0.00 0.01 0.03 0.00 0.00 0.00 0.00
0.00 0.00 0.00 0.00 0.00 0.00 0.00 0.00 0.00 0.00 0.00 0.00 0.00 0.00 0.00 0.00 0.00 0.00 0.00 0.00 0.00 0.00 0.00 0.00 0.00 0.00 0.00 0.00 0.00 0.00 0.00 0.00 0.00 0.00 0.00 0.00 0.00 0.00 0.01 0.03 0.03 0.02 0.10 0.08 0.00 0.00 0.00
0.00 0.00 0.00 0.00 0.00 0.00 0.00 0.00 0.00 0.00 0.00 0.00 0.00 0.00 0.00 0.00 0.00 0.00 0.00 0.00 0.00 0.00 0.00 0.00 0.00 0.00 0.00 0.00 0.00 0.00 0.00 0.00 0.00 0.00 0.00 0.00 0.01 0.00 0.00 0.01 0.01 0.02 0.03 0.16 0.04 0.00 0.00
0.00 0.00 0.00 0.00 0.00 0.00 0.00 0.00 0.00 0.00 0.00 0.00 0.00 0.00 0.00 0.00 0.00 0.00 0.00 0.00 0.00 0.00 0.00 0.00 0.00 0.00 0.00 0.00 0.00 0.00 0.00 0.00 0.00 0.00 0.00 0.01 0.02 0.03 0.01 0.00 0.00 0.01 0.00 0.04 0.01 0.00 0.00
0.00 0.00 0.00 0.00 0.00 0.00 0.00 0.00 0.00 0.00 0.00 0.00 0.00 0.00 0.00 0.00 0.00 0.00 0.00 0.00 0.00 0.00 0.00 0.00 0.00 0.00 0.00 0.00 0.00 0.00 0.00 0.00 0.00 0.00 0.00 0.00 0.00 0.01 0.02 0.01 0.00 0.00 0.00 0.00 0.00 0.00 0.00
0.00 0.00 0.00 0.00 0.00 0.00 0.00 0.00 0.00 0.00 0.00 0.00 0.00 0.00 0.00 0.00 0.00 0.00 0.00 0.00 0.00 0.00 0.00 0.00 0.00 0.00 0.00 0.00 0.00 0.00 0.00 0.00 0.00 0.00 0.00 0.00 0.00 0.00 0.00 0.00 0.00 0.00 0.00 0.00 0.00 0.00 0.00
0.00 0.00 0.00 0.00 0.00 0.00 0.00 0.00 0.00 0.00 0.00 0.00 0.00 0.00 0.00 0.00 0.00 0.00 0.00 0.00 0.00 0.00 0.00 0.00 0.00 0.00 0.00 0.00 0.00 0.00 0.00 0.00 0.00 0.00 0.00 0.00 0.00 0.00 0.00 0.00 0.00 0.00 0.00 0.00 0.00 0.01 0.01
0.00 0.00 0.00 0.00 0.00 0.00 0.00 0.00 0.00 0.00 0.00 0.00 0.00 0.00 0.00 0.00 0.00 0.00 0.00 0.00 0.00 0.00 0.00 0.00 0.00 0.00 0.00 0.00 0.00 0.00 0.00 0.00 0.00 0.00 0.00 0.00 0.00 0.00 0.00 0.00 0.00 0.00 0.00 0.00 0.00 0.00 0.02
0.00 0.00 0.00 0.00 0.00 0.00 0.00 0.00 0.00 0.00 0.00 0.00 0.00 0.00 0.00 0.00 0.00 0.00 0.00 0.00 0.00 0.00 0.00 0.00 0.00 0.00 0.00 0.00 0.00 0.00 0.00 0.00 0.00 0.00 0.00 0.00 0.00 0.00 0.00 0.00 0.00 0.00 0.00 0.00 0.00 0.00 0.00
0.00 0.00 0.00 0.00 0.00 0.00 0.00 0.00 0.00 0.00 0.00 0.00 0.00 0.00 0.00 0.00 0.00 0.00 0.00 0.00 0.00 0.00 0.00 0.00 0.00 0.00 0.00 0.00 0.00 0.00 0.00 0.00 0.00 0.00 0.00 0.00 0.00 0.00 0.00 0.00 0.00 0.00 0.00 0.00 0.00 0.00 0.00
0.00 0.00 0.00 0.00 0.00 0.00 0.00 0.00 0.00 0.00 0.00 0.00 0.00 0.00 0.00 0.00 0.00 0.00 0.00 0.00 0.00 0.00 0.00 0.00 0.00 0.00 0.00 0.00 0.00 0.00 0.00 0.00 0.00 0.00 0.00 0.00 0.00 0.00 0.00 0.00 0.00 0.00 0.00 0.01 0.01 0.00 0.00
0.00 0.00 0.00 0.00 0.00 0.00 0.00 0.00 0.00 0.00 0.00 0.00 0.00 0.00 0.00 0.00 0.00 0.00 0.00 0.00 0.00 0.00 0.00 0.00 0.00 0.00 0.00 0.00 0.00 0.00 0.00 0.00 0.00 0.00 0.00 0.00 0.00 0.00 0.00 0.00 0.00 0.00 0.00 0.00 0.00 0.00 0.00
0.00 0.00 0.00 0.00 0.00 0.00 0.00 0.00 0.00 0.00 0.00 0.00 0.00 0.00 0.00 0.00 0.00 0.00 0.00 0.00 0.00 0.00 0.00 0.00 0.00 0.00 0.00 0.00 0.00 0.00 0.00 0.00 0.00 0.00 0.00 0.00 0.00 0.00 0.00 0.00 0.00 0.00 0.00 0.00 0.00 0.00 0.00
0.00 0.00 0.00 0.00 0.00 0.00 0.00 0.00 0.00 0.00 0.00 0.00 0.00 0.00 0.00 0.00 0.00 0.00 0.00 0.00 0.00 0.00 0.00 0.00 0.00 0.00 0.00 0.00 0.00 0.00 0.00 0.00 0.00 0.00 0.00 0.00 0.00 0.00 0.00 0.00 0.00 0.00 0.00 0.00 0.00 0.00 0.00
0.00 0.00 0.00 0.00 0.00 0.00 0.00 0.00 0.00 0.00 0.00 0.00 0.00 0.00 0.00 0.00 0.00 0.00 0.00 0.00 0.00 0.00 0.00 0.00 0.00 0.00 0.00 0.00 0.00 0.00 0.00 0.00 0.00 0.00 0.00 0.00 0.00 0.00 0.00 0.00 0.00 0.00 0.00 0.00 0.00 0.00 0.00
0.00 0.00 0.00 0.00 0.00 0.00 0.00 0.00 0.00 0.00 0.00 0.00 0.00 0.00 0.00 0.00 0.00 0.00 0.00 0.00 0.00 0.00 0.00 0.00 0.00 0.00 0.00 0.00 0.00 0.00 0.00 0.00 0.00 0.00 0.00 0.00 0.00 0.00 0.00 0.00 0.00 0.00 0.00 0.00 0.00 0.00 0.00
0.00 0.00 0.00 0.00 0.00 0.00 0.00 0.00 0.00 0.00 0.00 0.00 0.00 0.00 0.00 0.00 0.00 0.00 0.00 0.00 0.00 0.00 0.00 0.00 0.00 0.00 0.00 0.00 0.00 0.00 0.00 0.00 0.00 0.00 0.00 0.00 0.00 0.00 0.00 0.00 0.00 0.00 0.00 0.00 0.00 0.00 0.00
0.00 0.00 0.00 0.00 0.00 0.00 0.00 0.00 0.00 0.00 0.00 0.00 0.00 0.00 0.00 0.00 0.00 0.00 0.00 0.00 0.00 0.00 0.00 0.00 0.00 0.00 0.00 0.00 0.00 0.00 0.00 0.00 0.00 0.00 0.00 0.00 0.00 0.00 0.00 0.00 0.00 0.00 0.00 0.00 0.00 0.00 0.00
0.00 0.00 0.00 0.00 0.00 0.00 0.00 0.00 0.00 0.00 0.00 0.00 0.00 0.00 0.00 0.00 0.00 0.00 0.00 0.00 0.00 0.00 0.00 0.00 0.00 0.00 0.00 0.00 0.00 0.00 0.00 0.00 0.00 0.00 0.00 0.00 0.00 0.00 0.00 0.00 0.00 0.00 0.00 0.00 0.00 0.00 0.00
0.00 0.00 0.00 0.00 0.00 0.00 0.00 0.00 0.00 0.00 0.00 0.00 0.00 0.00 0.00 0.00 0.00 0.00 0.00 0.00 0.00 0.00 0.00 0.00 0.00 0.00 0.00 0.00 0.00 0.00 0.00 0.00 0.00 0.00 0.00 0.00 0.00 0.00 0.00 0.00 0.00 0.00 0.00 0.00 0.00 0.00 0.00
0.00 0.00 0.00 0.00 0.00 0.00 0.00 0.00 0.00 0.00 0.00 0.00 0.00 0.00 0.00 0.00 0.00 0.00 0.00 0.00 0.00 0.00 0.00 0.00 0.00 0.00 0.00 0.00 0.00 0.00 0.00 0.00 0.00 0.00 0.00 0.00 0.00 0.00 0.00 0.00 0.00 0.00 0.00 0.00 0.00 0.00 0.00
0.01 0.00 0.00 0.00 0.00 0.00 0.00 0.00 0.00 0.00 0.00 0.00 0.00 0.00 0.00 0.00 0.00 0.00 0.00 0.00 0.00 0.00 0.00 0.00 0.00 0.00 0.00 0.00 0.00 0.00 0.00 0.00 0.00 0.00 0.00 0.00 0.00 0.00 0.00 0.00 0.00 0.00 0.00 0.00 0.00 0.00 0.00
0.01 0.01 0.00 0.00 0.00 0.00 0.00 0.00 0.00 0.00 0.00 0.00 0.00 0.00 0.00 0.00 0.00 0.00 0.00 0.00 0.00 0.00 0.00 0.00 0.00 0.00 0.00 0.00 0.00 0.00 0.00 0.00 0.00 0.00 0.00 0.00 0.00 0.00 0.00 0.00 0.00 0.00 0.00 0.00 0.00 0.00 0.00
0.00 0.00 0.00 0.00 0.00 0.00 0.00 0.00 0.00 0.00 0.00 0.00 0.00 0.00 0.00 0.00 0.00 0.00 0.00 0.00 0.00 0.00 0.00 0.00 0.00 0.00 0.00 0.00 0.00 0.00 0.00 0.00 0.00 0.00 0.00 0.00 0.00 0.00 0.00 0.00 0.00 0.00 0.00 0.00 0.00 0.00 0.00
0.01 0.00 0.00 0.00 0.00 0.00 0.00 0.00 0.00 0.00 0.00 0.00 0.00 0.00 0.00 0.00 0.00 0.00 0.00 0.00 0.00 0.00 0.00 0.00 0.00 0.00 0.00 0.00 0.00 0.00 0.00 0.00 0.00 0.00 0.00 0.00 0.00 0.00 0.00 0.00 0.00 0.00 0.00 0.00 0.00 0.00 0.00
0.15 0.08 0.02 0.00 0.00 0.00 0.00 0.00 0.00 0.00 0.00 0.00 0.00 0.00 0.00 0.00 0.00 0.00 0.00 0.00 0.00 0.00 0.00 0.00 0.00 0.00 0.00 0.00 0.00 0.00 0.00 0.00 0.00 0.00 0.00 0.00 0.00 0.00 0.00 0.00 0.00 0.00 0.00 0.00 0.00 0.00 0.00
0.22 0.34 0.22 0.06 0.02 0.01 0.01 0.01 0.01 0.01 0.01 0.01 0.00 0.00 0.00 0.00 0.00 0.00 0.00 0.00 0.00 0.00 0.00 0.00 0.00 0.00 0.00 0.00 0.00 0.00 0.00 0.00 0.00 0.00 0.00 0.00 0.00 0.00 0.00 0.00 0.00 0.00 0.00 0.00 0.00 0.00 0.00
MSLP
1023.32 1023.17 1023.01 1022.71 1022.54 1022.35 1022.15 1021.90 1021.68 1021.46 1021.08 1020.86 1020.59 1020.32 1020.11 1019.91 1019.70 1019.57 1019.44 1019.17 1018.86 1018.55 1018.32 1018.07 1017.85 1017.68 1017.69 1017.93 1017.83 1017.16 1016.99 1016.85 1016.70 1016.86 1017.15 1017.23 1017.29 1017.18 1017.34 1017.47 1017.68 1017.45 1016.93 1016.44 1016.03 1015.93 1015.80
1023.42 1023.27 1023.05 1022.96 1022.73 1022.55 1022.32 1022.10 1021.84 1021.53 1021.16 1020.89 1020.62 1020.34 1020.14 1019.88 1019.60 1019.49 1019.31 1019.05 1018.76 1018.51 1018.24 1017.96 1017.79 1017.70 1017.92 1017.97 1017.25 1017.17 1017.13 1016.93 1016.92 1017.08 1017.33 1017.46 1017.44 1017.30 1017.27 1017.43 1017.63 1017.24 1017.05 1016.56 1015.96 1015.60 1015.64
1023.56 1023.40 1023.23 1023.00 1022.87 1022.70 1022.45 1022.23 1021.98 1021.61 1021.21 1020.90 1020.72 1020.38 1020.08 1019.80 1019.50 1019.33 1019.16 1018.92 1018.68 1018.44 1018.14 1017.91 1017.77 1017.96 1018.12 1017.79 1017.14 1017.09 1017.00 1017.16 1017.12 1017.18 1017.40 1017.64 1017.49 1017.45 1017.30 1017.62 1017.53 1017.22 1017.19 1016.68 1016.09 1015.75 1015.51
1023.75 1023.60 1023.37 1023.14 1022.91 1022.76 1022.53 1022.30 1022.00 1021.66 1021.23 1020.85 1020.62 1020.31 1019.99 1019.71 1019.45 1019.17 1018.99 1018.78 1018.55 1018.34 1018.11 1017.89 1017.78 1018.03 1017.86 1017.07 1017.00 1016.97 1016.97 1017.12 1017.27 1017.28 1017.45 1017.53 1017.48 1017.56 1017.64 1017.69 1017.58 1017.39 1017.38 1016.97 1015.60 1015.35 1015.18
1023.94 1023.71 1023.52 1023.33 1023.03 1022.83 1022.58 1022.30 1021.98 1021.63 1021.23 1020.86 1020.52 1020.16 1019.86 1019.55 1019.28 1019.07 1018.79 1018.57 1018.30 1018.07 1017.98 1017.88 1018.06 1018.08 1017.70 1016.89 1017.04 1016.98 1017.04 1017.28 1017.40 1017.48 1017.49 1017.48 1017.53 1017.94 1017.80 1017.72 1017.66 1017.15 1017.04 1016.87 1016.15 1014.59 1014.73
1023.99 1023.84 1023.65 1023.38 1023.22 1022.88 1022.64 1022.28 1021.97 1021.58 1021.23 1020.83 1020.41 1020.10 1019.73 1019.39 1019.13 1018.91 1018.60 1018.35 1018.17 1018.02 1018.09 1017.97 1018.16 1018.50 1017.55 1017.47 1017.13 1016.98 1016.91 1017.11 1017.44 1017.57 1017.69 1017.62 1017.92 1018.01 1017.82 1017.80 1017.48 1017.07 1016.72 1016.23 1015.57 1014.73 1014.63
1024.19 1023.93 1023.68 1023.41 1023.23 1022.96 1022.64 1022.32 1022.01 1021.56 1021.16 1020.74 1020.30 1019.98 1019.64 1019.28 1019.00 1018.72 1018.48 1018.28 1018.90 1018.78 1018.49 1018.42 1018.42 1018.11 1017.68 1017.45 1017.08 1016.85 1016.81 1016.97 1017.37 1017.75 1017.94 1018.00 1018.22 1017.98 1017.56 1017.25 1016.75 1016.33 1016.09 1015.75 1014.51 1014.38 1014.47
1024.37 1024.11 1023.66 1023.40 1023.21 1023.04 1022.69 1022.29 1021.96 1021.53 1021.05 1020.61 1020.19 1019.83 1019.52 1019.24 1018.92 1018.70 1018.87 1018.96 1019.31 1019.76 1019.09 1018.52 1018.37 1018.16 1017.62 1017.58 1017.50 1016.87 1016.89 1017.17 1017.44 1017.84 1017.85 1018.21 1017.70 1017.05 1016.83 1016.68 1016.36 1015.99 1015.44 1014.79 1014.51 1014.38 1014.52
1024.38 1024.18 1023.87 1023.53 1023.08 1022.94 1022.66 1022.32 1021.86 1021.45 1021.04 1020.55 1020.08 1019.67 1019.35 1019.12 1018.83 1018.93 1019.35 1019.56 1019.47 1019.42 1019.58 1018.69 1018.19 1017.98 1017.55 1017.57 1017.51 1017.03 1017.09 1017.24 1017.37 1017.67 1017.77 1017.80 1017.01 1016.44 1016.32 1016.21 1015.81 1015.50 1015.17 1014.90 1014.69 1014.78 1014.97
1024.38 1024.13 1023.95 1023.61 1023.23 1022.81 1022.54 1022.19 1021.78 1021.36 1020.97 1020.54 1020.03 1019.62 1019.20 1018.92 1019.22 1019.52 1019.75 1019.79 1019.58 1019.41 1020.08 1019.12 1018.22 1017.55 1017.54 1017.37 1017.39 1016.89 1016.85 1017.39 1017.40 1017.70 1017.68 1017.39 1016.65 1016.41 1016.06 1015.87 1015.65 1015.36 1014.94 1014.84 1014.89 1015.21 1015.86
1024.46 1024.22 1024.01 1023.70 1023.33 1022.84 1022.46 1022.06 1021.69 1021.25 1020.86 1020.48 1020.01 1019.59 1019.27 1018.75 1019.37 1019.74 1020.06 1019.95 1019.88 1019.75 1020.55 1019.43 1018.10 1017.19 1017.29 1017.77 1017.38 1016.95 1017.04 1017.09 1017.58 1017.82 1017.96 1017.30 1016.73 1016.39 1016.11 1015.88 1015.65 1015.45 1015.05 1015.11 1015.41 1015.98 1016.48
1024.35 1024.15 1023.98 1023.59 1023.32 1022.90 1022.46 1022.02 1021.62 1021.17 1020.67 1020.35 1019.96 1019.47 1019.25 1019.43 1019.72 1020.01 1019.82 1019.85 1020.35 1020.79 1020.57 1019.50 1018.47 1018.03 1017.83 1017.81 1017.65 1017.31 1017.32 1017.41 1017.67 1017.89 1017.66 1017.07 1016.46 1016.31 1015.94 1015.58 1015.50 1015.41 1015.38 1015.80 1016.39 1016.99 1017.66
1024.25 1024.07 1023.84 1023.57 1023.27 1022.84 1022.42 1021.98 1021.55 1021.10 1020.59 1020.14 1019.77 1019.44 1019.13 1019.56 1020.11 1020.04 1019.97 1020.38 1021.30 1020.87 1020.88 1020.02 1019.35 1018.94 1018.81 1018.49 1018.24 1018.17 1018.18 1018.48 1019.09 1019.08 1018.78 1017.58 1016.53 1016.01 1015.82 1015.52 1015.42 1015.69 1016.40 1017.26 1017.88 1018.30 1018.26
1024.04 1023.84 1023.57 1023.44 1023.10 1022.78 1022.35 1021.87 1021.47 1021.00 1020.53 1020.02 1019.64 1019.51 1019.61 1019.74 1019.95 1020.01 1020.38 1021.01 1021.43 1021.26 1020.74 1020.11 1019.62 1019.36 1019.27 1018.86 1018.75 1018.84 1018.94 1019.31 1019.39 1019.76 1020.13 1019.45 1017.08 1016.12 1015.70 1015.64 1015.40 1015.57 1016.29 1017.59 1018.21 1018.83 1018.46
1023.78 1023.60 1023.33 1023.16 1022.94 1022.58 1022.24 1021.79 1021.35 1020.94 1020.48 1020.01 1019.63 1019.93 1020.02 1020.14 1019.99 1020.12 1020.84 1021.59 1021.38 1020.95 1020.56 1020.31 1019.86 1019.72 1019.49 1019.21 1019.31 1019.31 1019.50 1019.64 1019.65 1019.56 1019.82 1019.61 1017.83 1016.40 1016.16 1016.22 1016.47 1016.21 1016.48 1016.85 1017.93 1018.85 1018.62
1023.27 1023.18 1022.94 1022.86 1022.73 1022.38 1022.12 1021.73 1021.21 1020.86 1020.39 1019.96 1020.05 1020.18 1020.41 1020.15 1020.14 1020.53 1021.25 1021.41 1020.97 1020.58 1020.13 1020.11 1020.18 1020.05 1020.00 1019.62 1019.62 1019.54 1019.62 1019.52 1019.63 1019.66 1019.68 1019.59 1018.87 1017.08 1016.43 1016.28 1016.69 1016.59 1016.94 1017.23 1017.82 1018.57 1018.45
1022.67 1022.69 1022.48 1022.45 1022.39 1022.18 1021.97 1021.70 1021.27 1020.75 1020.35 1020.02 1020.26 1020.46 1020.38 1020.26 1020.18 1020.78 1021.44 1021.13 1020.51 1020.16 1020.25 1020.15 1019.99 1020.02 1020.02 1019.92 1019.86 1019.72 1019.56 1019.41 1019.49 1019.56 1019.65 1019.61 1019.49 1017.59 1016.74 1016.85 1017.03 1016.98 1017.01 1017.28 1017.87 1018.56 1018.95
1021.92 1022.12 1022.13 1021.97 1021.92 1021.94 1021.81 1021.60 1021.19 1020.94 1020.35 1020.02 1020.61 1020.93 1020.53 1020.52 1020.89 1021.18 1021.15 1020.43 1020.01 1019.84 1019.97 1020.08 1020.08 1019.92 1019.78 1019.77 1019.78 1019.71 1019.43 1019.11 1019.17 1019.39 1019.65 1019.85 1019.85 1019.18 1017.61 1017.19 1017.05 1017.04 1017.15 1017.44 1018.37 1018.79 1018.95
1021.25 1021.25 1021.42 1021.53 1021.57 1021.57 1021.36 1021.46 1021.23 1020.86 1020.82 1021.09 1021.07 1020.83 1020.54 1020.57 1020.70 1020.81 1020.40 1020.04 1019.75 1019.76 1019.72 1019.92 1019.98 1019.93 1019.69 1019.71 1019.73 1019.38 1019.19 1018.92 1019.05 1019.38 1019.60 1019.80 1020.03 1019.62 1018.32 1018.06 1017.49 1017.39 1017.50 1017.91 1018.28 1018.48 1018.39
1020.28 1020.42 1020.74 1020.77 1021.00 1021.13 1021.16 1020.93 1021.00 1020.83 1020.71 1021.12 1021.41 1021.16 1020.74 1020.59 1020.46 1020.13 1020.08 1019.77 1019.54 1019.39 1019.53 1019.51 1019.51 1019.69 1019.88 1019.60 1019.45 1019.22 1019.03 1018.99 1019.22 1019.34 1019.57 1019.83 1020.31 1020.27 1019.59 1018.73 1018.36 1018.06 1017.81 1017.91 1018.29 1018.87 1018.26
1019.33 1019.51 1019.77 1019.96 1020.20 1020.50 1020.64 1020.71 1020.68 1020.55 1020.50 1020.88 1021.37 1021.05 1020.91 1020.70 1020.40 1020.11 1019.83 1019.55 1019.38 1019.33 1019.43 1019.44 1019.49 1019.49 1019.72 1019.73 1019.46 1019.36 1018.91 1018.92 1019.29 1019.55 1019.80 1020.12 1020.45 1020.27 1019.48 1018.86 1018.59 1018.02 1017.82 1017.97 1018.33 1018.11 1018.10
1018.15 1018.41 1018.62 1018.99 1019.34 1019.75 1019.85 1020.26 1020.38 1020.41 1020.45 1020.80 1020.94 1021.02 1021.13 1020.62 1020.46 1020.27 1019.79 1019.22 1018.99 1018.86 1018.97 1019.15 1019.40 1019.13 1019.37 1019.56 1019.16 1019.15 1019.15 1019.15 1019.25 1019.65 1020.09 1020.49 1020.46 1020.35 1019.50 1018.55 1018.31 1017.82 1017.33 1017.45 1017.80 1017.78 1017.42
1017.06 1017.14 1017.39 1017.75 1018.32 1018.90 1019.21 1019.47 1019.90 1019.99 1020.55 1020.23 1020.46 1020.51 1020.32 1020.52 1020.32 1020.49 1019.65 1018.50 1018.39 1018.52 1018.35 1018.31 1018.75 1018.98 1019.12 1018.73 1018.87 1018.94 1019.10 1019.19 1019.28 1019.59 1020.16 1020.75 1020.98 1020.89 1019.84 1018.63 1017.80 1017.08 1016.06 1016.38 1016.59 1016.51 1016.34
1016.30 1015.77 1016.17 1016.41 1016.86 1017.47 1018.20 1018.83 1019.06 1019.34 1019.86 1020.18 1020.02 1020.10 1020.42 1020.45 1020.20 1019.57 1018.99 1018.63 1018.37 1018.23 1018.35 1018.39 1018.66 1018.88 1018.82 1018.74 1018.85 1019.22 1019.17 1019.39 1019.65 1019.80 1020.03 1020.69 1021.14 1021.27 1020.31 1018.93 1017.46 1015.55 1015.20 1015.37 1015.58 1015.24 1015.22
1015.27 1014.63 1014.63 1015.02 1015.63 1016.08 1016.72 1017.60 1018.34 1018.70 1018.91 1019.84 1019.72 1019.98 1019.85 1019.74 1019.33 1018.94 1018.63 1018.62 1018.42 1018.24 1018.46 1018.47 1018.67 1018.80 1018.84 1019.10 1019.39 1019.35 1019.40 1019.51 1019.63 1019.96 1020.38 1020.60 1020.93 1021.16 1020.70 1019.28 1016.55 1015.30 1015.07 1015.17 1015.23 1014.53 1014.31
1014.21 1013.08 1013.03 1013.49 1014.11 1014.97 1015.69 1016.23 1016.96 1017.92 1018.27 1018.93 1019.24 1019.19 1019.60 1019.59 1018.36 1017.68 1018.06 1018.42 1018.61 1018.60 1018.86 1018.63 1018.94 1018.96 1019.10 1019.63 1019.85 1019.85 1019.61 1019.14 1019.58 1020.20 1020.66 1020.88 1020.93 1021.04 1020.63 1019.22 1016.79 1014.99 1014.65 1014.59 1014.73 1014.55 1014.09
1013.64 1010.73 1010.93 1011.92 1012.84 1013.83 1014.49 1015.33 1016.00 1016.71 1017.39 1018.10 1018.34 1018.42 1019.14 1019.33 1017.96 1017.64 1017.49 1017.58 1017.91 1018.39 1018.66 1018.93 1018.97 1019.23 1019.40 1019.90 1020.19 1019.95 1019.49 1019.00 1019.19 1019.48 1020.29 1020.76 1020.95 1020.66 1019.89 1018.64 1016.34 1014.89 1014.59 1014.67 1014.93 1015.19 1014.23
1013.53 1010.71 1009.52 1010.50 1011.56 1012.67 1013.44 1014.03 1015.12 1015.79 1016.37 1017.17 1017.56 1017.51 1018.37 1018.54 1017.72 1017.51 1017.29 1017.02 1017.35 1017.86 1018.08 1018.75 1019.31 1019.30 1019.72 1020.05 1020.11 1019.63 1019.53 1018.83 1018.70 1018.46 1018.75 1019.09 1019.62 1019.63 1019.25 1018.07 1016.36 1015.02 1015.12 1015.22 1015.02 1014.41 1014.36
1014.99 1013.15 1010.26 1009.79 1010.84 1011.66 1012.54 1013.30 1013.86 1014.75 1015.51 1016.18 1017.03 1017.03 1017.62 1018.16 1017.68 1017.35 1016.83 1016.33 1016.00 1016.25 1016.98 1017.91 1018.19 1018.07 1018.35 1019.02 1019.59 1019.62 1019.34 1018.93 1018.56 1018.16 1017.91 1018.15 1017.83 1018.05 1018.04 1016.43 1015.38 1015.22 1015.18 1015.02 1014.99 1015.15 1014.89
Thickness
5631 5632 5633 5634 5635 5635 5635 5634 5634 5634 5634 5633 5632 5631 5630 5628 5626 5622 5617 5612 5604 5595 5585 5574 5561 5550 5542 5532 5527 5531 5528 5527 5526 5524 5520 5518 5517 5518 5516 5516 5517 5522 5534 5545 5554 5557 5565
5630 5631 5632 5632 5632 5633 5632 5632 5632 5632 5632 5631 5630 5630 5629 5627 5625 5621 5616 5610 5602 5593 5582 5573 5560 5549 5539 5527 5534 5529 5526 5525 5523 5521 5517 5514 5514 5515 5514 5513 5514 5520 5523 5532 5544 5553 5561
5628 5630 5631 5631 5631 5631 5630 5630 5630 5631 5631 5630 5629 5629 5628 5627 5625 5621 5616 5610 5601 5592 5582 5572 5560 5547 5536 5532 5536 5531 5527 5523 5522 5520 5515 5510 5510 5511 5514 5509 5513 5519 5520 5526 5535 5544 5554
5626 5628 5629 5629 5629 5629 5628 5628 5629 5629 5630 5630 5629 5629 5629 5627 5624 5621 5616 5610 5602 5593 5583 5572 5561 5547 5536 5543 5539 5534 5528 5525 5521 5519 5515 5511 5509 5507 5508 5510 5512 5514 5515 5514 5533 5540 5553
5624 5625 5626 5627 5627 5627 5626 5627 5628 5628 5629 5629 5629 5629 5629 5627 5625 5621 5617 5612 5605 5596 5585 5574 5563 5550 5540 5547 5540 5536 5532 5526 5523 5520 5516 5514 5510 5503 5506 5508 5509 5515 5514 5505 5515 5545 5552
5622 5623 5624 5624 5624 5625 5625 5625 5626 5627 5628 5628 5628 5628 5628 5627 5625 5621 5618 5614 5606 5598 5586 5577 5565 5550 5549 5541 5541 5539 5537 5531 5525 5522 5519 5516 5508 5504 5507 5507 5511 5513 5515 5518 5522 5543 5553
5617 5620 5622 5622 5622 5622 5623 5624 5623 5625 5627 5628 5628 5628 5628 5627 5625 5622 5619 5614 5600 5592 5586 5576 5567 5557 5550 5548 5546 5544 5541 5536 5529 5523 5518 5514 5510 5507 5511 5517 5522 5523 5525 5532 5546 5550 5554
5614 5616 5620 5621 5621 5620 5621 5622 5622 5623 5625 5627 5628 5629 5628 5626 5624 5622 5616 5611 5602 5591 5584 5579 5571 5561 5558 5551 5542 5544 5543 5536 5531 5523 5522 5514 5513 5526 5525 5523 5524 5527 5537 5543 5549 5551 5555
5612 5613 5615 5617 5620 5619 5620 5621 5622 5622 5623 5626 5628 5629 5628 5626 5624 5620 5611 5606 5600 5594 5581 5582 5576 5568 5563 5556 5546 5543 5542 5537 5534 5529 5527 5521 5530 5531 5534 5530 5534 5535 5540 5543 5548 5548 5550
5608 5610 5611 5614 5617 5619 5619 5620 5621 5621 5622 5624 5627 5628 5628 5627 5621 5614 5608 5604 5600 5596 5551 5578 5579 5577 5570 5562 5553 5552 5547 5539 5536 5531 5529 5529 5535 5534 5536 5534 5534 5536 5540 5545 5551 5547 5534
5603 5606 5608 5611 5613 5616 5618 5619 5620 5621 5621 5622 5625 5627 5626 5627 5619 5613 5608 5603 5599 5594 5533 5584 5582 5587 5577 5565 5562 5559 5550 5545 5538 5535 5534 5537 5537 5535 5537 5538 5539 5543 5543 5550 5548 5543 5541
5599 5602 5604 5608 5610 5613 5616 5618 5619 5621 5622 5622 5623 5626 5625 5621 5616 5611 5608 5604 5595 5561 5546 5581 5586 5576 5574 5571 5565 5561 5555 5549 5544 5542 5543 5545 5548 5545 5544 5544 5545 5547 5552 5545 5539 5534 5513
5594 5597 5600 5603 5606 5610 5613 5616 5618 5620 5622 5623 5623 5624 5624 5619 5613 5609 5606 5598 5567 5556 5584 5586 5579 5576 5569 5569 5567 5559 5553 5539 5530 5514 5516 5538 5555 5553 5551 5553 5552 5549 5541 5513 5526 5521 5528
5588 5592 5596 5598 5602 5605 5609 5613 5615 5618 5620 5623 5623 5622 5619 5616 5612 5609 5601 5589 5579 5582 5582 5586 5583 5577 5574 5573 5572 5561 5556 5541 5541 5527 5493 5497 5536 5561 5559 5558 5562 5557 5549 5516 5533 5523 5530
5584 5588 5592 5594 5597 5601 5604 5609 5612 5615 5617 5620 5622 5618 5615 5612 5610 5606 5593 5561 5575 5583 5589 5584 5583 5582 5576 5577 5571 5565 5557 5550 5548 5546 5540 5517 5551 5563 5561 5559 5555 5560 5544 5552 5531 5520 5506
5579 5582 5588 5590 5592 5596 5599 5603 5608 5611 5614 5617 5616 5613 5610 5610 5607 5599 5585 5591 5592 5588 5590 5586 5583 5581 5575 5572 5571 5567 5562 5563 5559 5554 5546 5546 5542 5564 5564 5564 5559 5560 5557 5550 5538 5550 5549
5575 5577 5582 5585 5587 5591 5594 5596 5601 5606 5609 5612 5609 5612 5608 5605 5605 5591 5575 5583 5592 5591 5588 5584 5583 5579 5575 5574 5570 5569 5570 5567 5561 5559 5552 5553 5547 5565 5572 5561 5556 5557 5557 5556 5549 5543 5540
5571 5572 5575 5579 5582 5584 5587 5590 5594 5598 5603 5606 5600 5601 5602 5599 5597 5569 5589 5593 5597 5594 5588 5585 5581 5579 5579 5577 5573 5571 5571 5569 5566 5562 5562 5552 5541 5534 5570 5567 5565 5562 5562 5557 5542 5558 5533
5567 5569 5570 5572 5574 5577 5580 5581 5585 5589 5592 5590 5595 5592 5596 5594 5596 5590 5589 5593 5593 5590 5587 5583 5580 5577 5578 5577 5575 5574 5575 5575 5567 5564 5563 5556 5547 5530 5565 5564 5567 5566 5564 5556 5547 5542 5555
5559 5563 5564 5567 5567 5569 5571 5576 5577 5580 5582 5582 5583 5588 5590 5583 5579 5595 5594 5593 5590 5587 5586 5583 5582 5578 5575 5575 5568 5576 5577 5575 5569 5567 5564 5554 5540 5551 5548 5566 5559 5564 5568 5564 5558 5537 5562
5553 5556 5557 5559 5562 5562 5564 5566 5568 5572 5574 5573 5571 5583 5581 5586 5585 5584 5586 5588 5586 5584 5579 5577 5578 5572 5570 5570 5573 5568 5576 5575 5569 5567 5558 5551 5553 5530 5545 5546 5550 5559 5565 5562 5555 5560 5559
5547 5548 5552 5553 5554 5554 5557 5556 5559 5561 5563 5563 5568 5570 5562 5567 5571 5577 5578 5583 5580 5582 5579 5576 5570 5576 5562 5564 5568 5568 5570 5570 5571 5565 5560 5544 5556 5546 5552 5567 5552 5556 5556 5551 5553 5559 5553
5540 5543 5545 5547 5547 5546 5547 5549 5548 5551 5550 5555 5554 5556 5562 5561 5560 5561 5566 5578 5578 5577 5579 5578 5569 5569 5563 5562 5561 5562 5556 5556 5562 5562 5551 5546 5539 5538 5557 5550 5552 5574 5572 5559 5565 5562 5571
5532 5539 5538 5541 5543 5543 5541 5539 5540 5542 5541 5543 5548 5548 5548 5555 5548 5557 5567 5566 5569 5569 5571 5570 5563 5562 5562 5555 5552 5546 5547 5546 5544 5546 5542 5537 5535 5521 5535 5547 5563 5588 5578 5572 5573 5579 5568
5524 5532 5536 5535 5535 5536 5537 5534 5530 5532 5535 5532 5536 5537 5539 5542 5546 5554 5556 5557 5562 5560 5559 5560 5555 5549 5544 5546 5540 5542 5539 5543 5539 5537 5533 5529 5525 5528 5521 5534 5575 5579 5574 5571 5574 5585 5570
5513 5526 5531 5532 5530 5527 5526 5528 5526 5521 5524 5526 5526 5528 5526 5529 5545 5558 5547 5545 5542 5539 5541 5546 5537 5534 5535 5526 5529 5540 5544 5551 5540 5525 5518 5515 5513 5517 5513 5537 5570 5580 5571 5567 5568 5564 5572
5498 5528 5531 5527 5524 5520 5518 5517 5516 5515 5515 5515 5520 5521 5516 5516 5532 5537 5538 5537 5534 5528 5528 5527 5528 5526 5523 5512 5518 5518 5531 5533 5540 5532 5511 5509 5502 5508 5511 5522 5548 5564 5562 5559 5560 5556 5564
5482 5507 5521 5521 5517 5512 5510 5509 5505 5505 5505 5504 5510 5513 5509 5506 5518 5522 5528 5528 5524 5521 5525 5517 5518 5513 5503 5508 5507 5511 5505 5523 5527 5533 5523 5523 5506 5505 5502 5517 5535 5548 5548 5552 5547 5549 5552
5448 5468 5498 5506 5501 5500 5498 5496 5497 5495 5494 5494 5496 5501 5498 5497 5507 5509 5516 5525 5530 5526 5516 5505 5517 5514 5513 5505 5495 5494 5504 5499 5516 5534 5519 5527 5530 5530 5523 5535 5541 5534 5534 5534 5530 5530 5536